[[{"header":{"parameterUnit":"m.s-1","parameterCategory":1,"la1":30.2991,"la2":30.254,"lo1":-89.0895,"lo2":-89.0444,"dy":0.0017,"dx":0.0017,"nx":28,"ny":28,"refTime":"2025-08-05T21:00:00:Z","depth":0,"parameterNumber":2,"parameterNumberName":"U-component_of_WINDS"},"data":[0,0,0,0,0,0,0,0,0,0,0,0,0,0,0,0,0,0,0,0,0,0,0,0,0,0,0,0,0,0,0,0,0,0,0,0,0,0,0,0,0,0,0,0,0,0,0,0,0,0,0,0,0,0,0,0,0,0,-0.0191,-0.0191,0,-0.021,-0.0211,-0.0211,-0.0213,-0.0213,-0.0213,-0.0213,-0.0233,-0.0234,-0.0235,0,0,0,0,0,0,0,0,0,0,0,0,0,-0.0157,-0.0157,-0.0191,-0.0191,-0.0192,-0.021,-0.0211,-0.0211,-0.0214,-0.0213,-0.0213,-0.0213,-0.0233,-0.0234,-0.0235,0,0,0,0,0,0,0,0,0,0,0,0,0,-0.0173,-0.0158,-0.0191,-0.0195,-0.0196,-0.021,-0.0211,-0.0211,-0.0214,-0.0213,-0.0213,-0.0213,-0.0233,-0.0234,-0.0235,-0.0247,0,0,-0.0238,-0.0239,0,0,0,0,0,0,0,0,-0.0173,-0.0175,-0.0194,-0.0195,-0.0196,-0.0209,-0.0206,-0.0223,-0.0214,-0.0207,-0.0213,-0.0213,-0.0226,-0.0227,-0.0232,-0.0248,-0.0249,-0.0238,-0.0239,-0.024,-0.024,0,0,0,0,0,0,0,-0.0171,-0.0174,-0.0199,-0.0195,-0.0195,-0.0196,-0.0198,-0.0209,-0.0218,-0.0207,-0.0208,-0.021,-0.0226,-0.0231,-0.0232,-0.0249,-0.0238,-0.0239,-0.024,-0.024,-0.0276,-0.0276,0,0,0,0,0,0,-0.0169,-0.0173,-0.0198,-0.0199,-0.0183,-0.0197,-0.0199,-0.0205,-0.0217,-0.0219,-0.021,-0.021,-0.0229,-0.0231,-0.0233,-0.0247,-0.024,-0.0241,-0.0241,-0.0275,-0.0276,-0.0276,0,0,0,0,0,0,-0.0169,-0.0172,-0.0197,-0.0186,-0.019,-0.0198,-0.0204,-0.0206,-0.021,-0.0219,-0.0221,-0.0213,-0.0229,-0.0231,-0.0243,-0.0248,-0.0241,-0.0242,-0.0275,-0.0275,-0.0276,-0.0276,0,0,0,0,0,0,-0.0168,-0.0171,-0.0176,-0.0186,-0.019,-0.0208,-0.0205,-0.0206,-0.0212,-0.0212,-0.0223,-0.0224,-0.0229,-0.0242,-0.0244,-0.0249,-0.0243,-0.0275,-0.0275,-0.0276,-0.0276,-0.0277,-0.0277,0,0,0,0,0,-0.0166,-0.0176,-0.0176,-0.0179,-0.0196,-0.0208,-0.021,-0.0215,-0.0212,-0.0217,-0.0223,-0.0224,-0.0247,-0.0243,-0.0246,-0.0251,-0.0274,-0.0275,-0.0276,-0.0276,-0.0277,-0.0277,0,0,0,0,0,0,-0.0167,-0.0177,-0.0178,-0.0191,-0.0198,-0.0208,-0.0215,-0.0216,-0.0224,-0.0224,-0.0229,-0.0232,-0.0243,-0.0249,-0.0244,-0.0263,-0.026,-0.0262,-0.0259,-0.026,-0.0261,-0.026,-0.0244,0,0,0,0,0,-0.0168,-0.0177,-0.0186,-0.0196,-0.02,-0.0207,-0.0212,-0.0215,-0.0223,-0.0226,-0.0233,-0.024,-0.0249,-0.0255,-0.0264,-0.0277,-0.0279,-0.0282,-0.0282,-0.0283,-0.0284,-0.029,-0.0291,-0.0278,-0.0278,-0.0278,0,0,-0.0172,-0.0179,-0.0184,-0.0197,-0.0203,-0.0211,-0.0209,-0.0219,-0.0225,-0.0227,-0.0239,-0.0244,-0.0253,-0.0265,-0.0271,-0.027,-0.0288,-0.0284,-0.0284,-0.0285,-0.0291,-0.0292,-0.0293,-0.0279,-0.0279,-0.0278,0,0,-0.0182,-0.0188,-0.0198,-0.0203,-0.0212,-0.0216,-0.0218,-0.0228,-0.0231,-0.0243,-0.0244,-0.0252,-0.0267,-0.0273,-0.0278,-0.029,-0.0291,-0.0292,-0.0296,-0.0302,-0.0303,-0.0304,-0.0308,-0.0309,-0.0293,-0.0293,-0.0293,0,-0.0186,-0.0198,-0.0202,-0.0211,-0.0216,-0.0218,-0.0227,-0.0233,-0.0244,-0.0248,-0.0246,-0.0265,-0.0271,-0.0284,-0.0287,-0.0291,-0.0294,-0.0291,-0.0303,-0.0304,-0.0305,-0.0308,-0.0309,-0.0294,-0.0294,-0.0294,-0.0294,0,-0.0202,-0.021,-0.0217,-0.0227,-0.0233,-0.0242,-0.0247,-0.0252,-0.0254,-0.0258,-0.027,-0.0277,-0.0287,-0.029,-0.0292,-0.0303,-0.0302,-0.0302,-0.0299,-0.0306,-0.0309,-0.0311,-0.0294,-0.0294,-0.0294,-0.0294,0,0,-0.0214,-0.0225,-0.0227,-0.0231,-0.0241,-0.0248,-0.0256,-0.0265,-0.027,-0.0277,-0.0284,-0.0297,-0.0296,-0.0302,-0.0304,-0.031,-0.0317,-0.0308,-0.0309,-0.0309,-0.0329,-0.0329,-0.0331,-0.0318,-0.0318,-0.0318,-0.0328,0,-0.0225,-0.024,-0.0244,-0.0257,-0.0264,-0.0266,-0.0273,-0.028,-0.0283,-0.029,-0.0295,-0.0303,-0.0302,-0.0305,-0.031,-0.0315,-0.0321,-0.0315,-0.0324,-0.0325,-0.0322,-0.0332,-0.0333,-0.0342,-0.0329,-0.033,-0.033,0,-0.0241,-0.0248,-0.0261,-0.0269,-0.0272,-0.0279,-0.0287,-0.0293,-0.03,-0.0303,-0.0308,-0.031,-0.0319,-0.0316,-0.0327,-0.0323,-0.0327,-0.033,-0.033,-0.0331,-0.0328,-0.0334,-0.0345,-0.0346,-0.0332,-0.0332,-0.0332,0,-0.0247,-0.026,-0.027,-0.0274,-0.0283,-0.0287,-0.0291,-0.0298,-0.0302,-0.0309,-0.0312,-0.032,-0.0325,-0.0331,-0.0335,-0.0332,-0.0346,-0.0343,-0.0348,-0.0348,-0.0351,-0.0351,-0.0363,-0.0354,-0.0354,-0.0354,-0.0354,0,-0.026,-0.0268,-0.0273,-0.0279,-0.0288,-0.0291,-0.03,-0.0304,-0.031,-0.0316,-0.0318,-0.0324,-0.0329,-0.0336,-0.0339,-0.0347,-0.035,-0.0351,-0.0352,-0.0351,-0.0351,-0.0354,-0.0354,-0.0354,-0.0354,-0.0354,-0.0354,0,-0.0269,-0.0273,-0.0283,-0.029,-0.0292,-0.0299,-0.0305,-0.031,-0.0314,-0.0322,-0.0324,-0.0329,-0.0337,-0.0341,-0.0351,-0.0353,-0.0363,-0.0364,-0.0361,-0.0361,-0.0365,-0.0365,-0.038,-0.0382,-0.0371,-0.0372,-0.0372,0,-0.0277,-0.0283,-0.029,-0.0295,-0.0298,-0.0305,-0.031,-0.0313,-0.0318,-0.0326,-0.033,-0.0338,-0.0344,-0.0357,-0.0361,-0.0369,-0.0369,-0.0374,-0.037,-0.0369,-0.0369,-0.0368,-0.0369,-0.0375,-0.0375,-0.0375,-0.0375,0,-0.029,-0.0291,-0.0297,-0.0304,-0.0309,-0.0315,-0.0321,-0.0324,-0.0328,-0.0334,-0.0341,-0.0346,-0.0355,-0.0363,-0.037,-0.0374,-0.0375,-0.0376,-0.0377,-0.0376,-0.0374,-0.0375,-0.0362,-0.0375,-0.0375,-0.0375,-0.0375,-0.0375,-0.0298,-0.0303,-0.0309,-0.0316,-0.032,-0.0325,-0.033,-0.0334,-0.034,-0.0348,-0.035,-0.0358,-0.0363,-0.0373,-0.0377,-0.0383,-0.0382,-0.0385,-0.0385,-0.0386,-0.0386,-0.0373,-0.0385,-0.0385,-0.0385,-0.0385,-0.0385,0,-0.0311,-0.0314,-0.032,-0.0328,-0.0333,-0.0333,-0.0338,-0.0343,-0.035,-0.0355,-0.0361,-0.0369,-0.0376,-0.0381,-0.0388,-0.0392,-0.0392,-0.0393,-0.0393,-0.0394,-0.0386,-0.0384,-0.0393,-0.0393,-0.0393,-0.0393,-0.0393,-0.0393,-0.0318,-0.0326,-0.0328,-0.0338,-0.0342,-0.0349,-0.0353,-0.0357,-0.0361,-0.037,-0.0375,-0.0378,-0.0383,-0.039,-0.0396,-0.0398,-0.04,-0.0401,-0.0402,-0.0395,-0.0394,-0.0394,-0.0392,-0.0402,-0.0402,-0.0409,-0.0409,-0.0409]},{"header":{"parameterUnit":"m.s-1","parameterCategory":1,"la1":30.2991,"la2":30.254,"lo1":-89.0895,"lo2":-89.0444,"dy":0.0017,"dx":0.0017,"nx":28,"ny":28,"refTime":"2025-08-05T21:00:00:Z","depth":0,"parameterNumber":3,"parameterNumberName":"V-component_of_WINDS"},"data":[0,0,0,0,0,0,0,0,0,0,0,0,0,0,0,0,0,0,0,0,0,0,0,0,0,0,0,0,0,0,0,0,0,0,0,0,0,0,0,0,0,0,0,0,0,0,0,0,0,0,0,0,0,0,0,0,0,0,-1.4089,-1.409,0,-1.4114,-1.4115,-1.4115,-1.4115,-1.4115,-1.4115,-1.4114,-1.4138,-1.4139,-1.414,0,0,0,0,0,0,0,0,0,0,0,0,0,-1.404,-1.4041,-1.4089,-1.409,-1.409,-1.4114,-1.4115,-1.4115,-1.4115,-1.4115,-1.4115,-1.4114,-1.4137,-1.4139,-1.414,0,0,0,0,0,0,0,0,0,0,0,0,0,-1.4063,-1.4041,-1.4089,-1.4093,-1.4094,-1.4114,-1.4115,-1.4115,-1.4115,-1.4115,-1.4114,-1.4114,-1.4137,-1.4138,-1.414,-1.4157,0,0,-1.4144,-1.4144,0,0,0,0,0,0,0,0,-1.4061,-1.4064,-1.4092,-1.4093,-1.4094,-1.4111,-1.4106,-1.4129,-1.4116,-1.4107,-1.4114,-1.4114,-1.4129,-1.4131,-1.4137,-1.4158,-1.4159,-1.4144,-1.4145,-1.4145,-1.4146,0,0,0,0,0,0,0,-1.406,-1.4063,-1.4099,-1.4093,-1.4094,-1.4093,-1.4096,-1.411,-1.412,-1.4108,-1.4108,-1.4111,-1.4129,-1.4135,-1.4137,-1.416,-1.4144,-1.4145,-1.4146,-1.4147,-1.4196,-1.4197,0,0,0,0,0,0,-1.4058,-1.4062,-1.4098,-1.41,-1.4076,-1.4094,-1.4097,-1.4106,-1.412,-1.4122,-1.4111,-1.4111,-1.4133,-1.4136,-1.4138,-1.4159,-1.4145,-1.4147,-1.4147,-1.4196,-1.4196,-1.4197,0,0,0,0,0,0,-1.4057,-1.4061,-1.4097,-1.4081,-1.4086,-1.4096,-1.4105,-1.4107,-1.4113,-1.4123,-1.4124,-1.4116,-1.4133,-1.4136,-1.4152,-1.416,-1.4147,-1.4149,-1.4195,-1.4196,-1.4197,-1.4201,0,0,0,0,0,0,-1.4055,-1.4061,-1.4068,-1.4081,-1.4087,-1.4112,-1.4106,-1.4108,-1.4115,-1.4115,-1.4127,-1.4129,-1.4133,-1.415,-1.4154,-1.4161,-1.415,-1.4194,-1.4195,-1.4196,-1.42,-1.4202,-1.4203,0,0,0,0,0,-1.4054,-1.4068,-1.4068,-1.4073,-1.4096,-1.4113,-1.4115,-1.412,-1.4116,-1.4123,-1.4129,-1.4129,-1.4159,-1.4152,-1.4156,-1.4164,-1.4194,-1.4195,-1.4196,-1.42,-1.4202,-1.4203,0,0,0,0,0,0,-1.4055,-1.407,-1.407,-1.409,-1.41,-1.4113,-1.4122,-1.4122,-1.4133,-1.4132,-1.4137,-1.414,-1.4156,-1.4162,-1.4154,-1.4181,-1.4176,-1.4178,-1.4177,-1.4179,-1.418,-1.4178,-1.4151,0,0,0,0,0,-1.4057,-1.407,-1.4082,-1.4098,-1.4103,-1.4112,-1.4119,-1.4122,-1.4132,-1.4136,-1.4144,-1.4153,-1.4165,-1.4172,-1.4184,-1.4201,-1.4204,-1.4209,-1.421,-1.4211,-1.4213,-1.4222,-1.4224,-1.42,-1.42,-1.42,0,0,-1.4063,-1.4073,-1.408,-1.4099,-1.4107,-1.4119,-1.4115,-1.4129,-1.4137,-1.4138,-1.4154,-1.416,-1.4171,-1.4188,-1.4196,-1.4193,-1.422,-1.4213,-1.4214,-1.4214,-1.4223,-1.4225,-1.4227,-1.4201,-1.4201,-1.4201,0,0,-1.4079,-1.4088,-1.4102,-1.411,-1.4123,-1.4128,-1.4131,-1.4144,-1.4148,-1.4164,-1.4165,-1.4175,-1.4195,-1.4202,-1.4209,-1.4227,-1.4227,-1.4231,-1.4238,-1.4247,-1.4249,-1.425,-1.4256,-1.4258,-1.4232,-1.4232,-1.4232,0,-1.4083,-1.4103,-1.4109,-1.4122,-1.413,-1.4131,-1.4145,-1.4153,-1.4168,-1.4173,-1.417,-1.4195,-1.4202,-1.422,-1.4225,-1.423,-1.4233,-1.4229,-1.4248,-1.425,-1.4251,-1.4257,-1.4259,-1.4233,-1.4233,-1.4232,-1.4232,0,-1.4107,-1.4121,-1.413,-1.4146,-1.4155,-1.4168,-1.4175,-1.4183,-1.4185,-1.419,-1.4206,-1.4215,-1.4228,-1.4233,-1.4235,-1.4251,-1.4249,-1.4247,-1.4241,-1.4254,-1.4259,-1.4261,-1.4233,-1.4233,-1.4233,-1.4233,0,0,-1.4124,-1.4143,-1.4146,-1.4153,-1.4167,-1.4177,-1.419,-1.4203,-1.4209,-1.422,-1.423,-1.4247,-1.4245,-1.4252,-1.4255,-1.4263,-1.4276,-1.426,-1.426,-1.4262,-1.4294,-1.4294,-1.4297,-1.4276,-1.4276,-1.4277,-1.4292,0,-1.4141,-1.4165,-1.4171,-1.4191,-1.4203,-1.4205,-1.4216,-1.4225,-1.423,-1.4241,-1.4246,-1.4258,-1.4255,-1.4259,-1.4267,-1.4273,-1.4282,-1.4272,-1.4285,-1.4285,-1.4281,-1.43,-1.4301,-1.4315,-1.4294,-1.4295,-1.4295,0,-1.4164,-1.4175,-1.4197,-1.4209,-1.4214,-1.4224,-1.4236,-1.4246,-1.4256,-1.426,-1.4268,-1.427,-1.4282,-1.4277,-1.4294,-1.4286,-1.4292,-1.4296,-1.4296,-1.4297,-1.429,-1.43,-1.432,-1.4322,-1.4299,-1.4298,-1.4298,0,-1.4173,-1.4194,-1.4209,-1.4215,-1.423,-1.4236,-1.4243,-1.4253,-1.426,-1.427,-1.4275,-1.4286,-1.4292,-1.4301,-1.4306,-1.4301,-1.4322,-1.4317,-1.4324,-1.4324,-1.4328,-1.4327,-1.4348,-1.4333,-1.4333,-1.4333,-1.4333,0,-1.4191,-1.4204,-1.4214,-1.4223,-1.4237,-1.4243,-1.4257,-1.4263,-1.4271,-1.4281,-1.4284,-1.4293,-1.4299,-1.4308,-1.4312,-1.4325,-1.4328,-1.433,-1.4331,-1.433,-1.4329,-1.4333,-1.4332,-1.4333,-1.4333,-1.4333,-1.4333,0,-1.4203,-1.421,-1.4227,-1.424,-1.4243,-1.4253,-1.4263,-1.4272,-1.4277,-1.429,-1.4293,-1.4301,-1.4313,-1.4318,-1.4333,-1.4335,-1.435,-1.435,-1.4346,-1.4346,-1.4353,-1.4352,-1.4376,-1.4379,-1.4363,-1.4363,-1.4363,0,-1.4213,-1.4223,-1.4237,-1.4244,-1.4251,-1.4262,-1.427,-1.4276,-1.4283,-1.4296,-1.4303,-1.4314,-1.4324,-1.4342,-1.4349,-1.436,-1.436,-1.4368,-1.4361,-1.436,-1.4359,-1.4358,-1.4359,-1.4368,-1.4368,-1.4369,-1.4369,0,-1.4231,-1.4234,-1.4245,-1.4257,-1.4266,-1.4276,-1.4286,-1.4291,-1.4299,-1.4307,-1.4319,-1.4327,-1.4341,-1.4353,-1.4364,-1.4369,-1.437,-1.4371,-1.4373,-1.4371,-1.4368,-1.4369,-1.4348,-1.437,-1.437,-1.437,-1.437,-1.437,-1.4242,-1.4251,-1.4262,-1.4274,-1.4282,-1.4291,-1.4299,-1.4306,-1.4316,-1.4329,-1.4332,-1.4344,-1.4354,-1.4369,-1.4375,-1.4384,-1.4382,-1.4386,-1.4386,-1.4387,-1.4387,-1.4368,-1.4386,-1.4386,-1.4386,-1.4386,-1.4386,0,-1.4259,-1.4266,-1.4277,-1.4291,-1.43,-1.4301,-1.4311,-1.4319,-1.433,-1.4339,-1.4348,-1.4362,-1.4373,-1.4381,-1.4391,-1.4397,-1.4398,-1.44,-1.4399,-1.44,-1.4388,-1.4385,-1.4399,-1.4399,-1.4399,-1.4399,-1.4399,-1.4399,-1.4269,-1.4283,-1.4287,-1.4306,-1.4312,-1.4325,-1.4331,-1.4339,-1.4346,-1.4361,-1.4371,-1.4376,-1.4384,-1.4395,-1.4405,-1.4407,-1.4411,-1.4413,-1.4414,-1.4403,-1.4401,-1.44,-1.4397,-1.4414,-1.4414,-1.4426,-1.4426,-1.4426]}]]